Regional Weather Roundup
Issued by NWS Eureka, CA

Home | Current Version | Previous Version | Text Only | Print | Product List | Glossary On
Versions: 1 2 3 4 5 6 7 8 9 10 11 12 13 14 15 16 17 18 19 20 21 22 23 24 25 26 27 28 29 30 31 32 33 34 35 36 37 38 39 40 41 42 43 44 45 46 47 48 49 50
000
ASUS46 KEKA 191114
RWREKA
Eureka Area Weather Roundup
National Weather Service Eureka CA
300 AM PST TUE NOV 19 2019

Note: "fair" indicates few or no clouds below 12,000 feet with no
significant weather and/or obstructions to visibility.

Southwest Oregon...

CITY           SKY/WX    TMP DP  RH WIND       PRES   REMARKS
MEDFORD        PTCLDY    48  38  68 CALM      29.85S
KLAMATH FALLS  CLOUDY    47  37  68 NW18      29.79S
NORTH BEND     CLOUDY    54  52  93 SW10      29.81F
ROSEBURG       LGT RAIN  51  48  89 N3        29.83S
SEXTON SUMMIT  NOT AVBL
BROOKINGS      FOG       52  52 100 CALM      29.90F VSB 1/2

Northwest California...

CITY           SKY/WX    TMP DP  RH WIND       PRES   REMARKS
CRESCENT CITY  LGT RAIN  53  53 100 SW8       29.90F
MCKINLEYVILLE  CLOUDY    53  51  93 CALM      29.92S
EUREKA         MOCLDY    54  32  43 CALM      29.92S FOG
FORTUNA        CLOUDY    54  52  94 CALM      29.92F
WEAVERVILLE      N/A     54  41  62 S6        29.84S
TRINITY CENTER   N/A     41  39  93 CALM      29.81S
UKIAH          CLEAR     59  52  77 N9        29.84F

North & Central California...

CITY           SKY/WX    TMP DP  RH WIND       PRES   REMARKS
YREKA          MOCLDY    52  37  56 NW16      29.82R
MOUNT SHASTA   MOCLDY    43  38  82 NE3       29.79F
REDDING        PTCLDY    50  42  74 NE3       29.76F
RED BLUFF      MOCLDY    51  44  77 CALM      29.78S
CHICO            N/A     55  41  58 CALM      29.76F
YUBA CITY      CLEAR     51  44  77 E5        29.74F
SACRAMENTO     PTCLDY    55  48  77 SE5       29.75F HAZE
SANTA ROSA     CLEAR     46  45  96 S3        29.82S
NAPA           CLEAR     46  45  96 CALM      29.79F
TRAVIS AFB     NOT AVBL
SAN FRANCISCO  MOCLDY    58  54  86 W20       29.81F
OAKLAND        MOCLDY    55  51  86 CALM      29.82F
STOCKTON       NOT AVBL
SALINAS        CLOUDY    53  51  93 SW5       29.84R FOG
MONTEREY       CLOUDY    57  54  89 W9        29.85S

$$



USA.gov is the U.S. government's official web portal to all federal, state and local government web resources and services.